Location: Acequia del Cap
(41.7000°N, 0.6167°E)
Time: 15:04:27
(UTC+00:00)

CZ-2C R/B - Pass Details

Date: 07 August 2020
Orbit: 668 x 784 km, 98.2° (Epoch: 22 September)

Event Time Altitude Azimuth Distance (km) Brightness Sun altitude
Rises 04:18:28 0° 9° (N) 3,022 6.2 -7.5°
Reaches altitude 10° 04:20:42 10° 7° (N) 2,103 5.3 -7.1°
Maximum altitude 04:25:14 64° 286° (WNW) 744 2.3 -6.4°
Drops below altitude 10° 04:29:47 10° 205° (SSW) 2,112 4.3 -5.6°
Sets 04:32:02 0° 203° (SSW) 3,035 5.1 -5.2°
